SXM-7 (47240 NORAD) Tracking and Keplerian Element Data

This shows tracking and keplerian element data for the satellite.

Feedback or suggestion? Click here.




ElementValue
Catalog47240
NameSXM-7
Epoch Orbit53
Epoch Day20.74305625
Epoch Year2021
RAAN24.9726
Inclination0.0096
Eccentricity0.0002329
Argument of Perigee0.9642
Mean Anonmoly241.3988
Mean Motion1.0027181
Decay Rate1.8E-07
L11 47240U 20096A 21020.74305625 .00000018 00000-0 00000-0 0 9990
L22 47240 0.0096 24.9726 0002329 0.9642 241.3988 1.00271810 534

Live tracking and technical data element details for SXM-7 (NORAD 47240). SXM-7 can be tracked NOW for your location showing map with azimuth and elevation plus other details from your city location.

Track the satellite on the map from your city or location and see movement details for azimuth, elevation, latitude, longitude, range, height, and movement on the map or in text.







IsCatalogInMostPopularTable: catalog: 47240, numindb: 11
Update: records affected: 1



GetName: 47240 SXM-7

Hit Count: updated at: Sat, 23 Jan 2021 18:13:26 GMT